• In United Kingdom
  • List of Countries
  • For 7 days
  • Water Temperature
  • Satellite Maps
  • Weather Map
  • Weather Widgets
  • user-avatar
    Login

    Hourly Weather Rozopol

    Today, 18 July, Wednesday

    Time Temperature Precipitation Wind Pressure Humidity
    00:00 +19°C° 0.1 mm 2 mps 743 mmHg 97%
    01:00 +19°C° 0.1 mm 2 mps 743 mmHg 97%
    02:00 +19°C° 0.1 mm 2 mps 743 mmHg 98%
    03:00 +19°C° 0.1 mm 2 mps 743 mmHg 98%
    04:00 +19°C° 0.1 mm 2 mps 743 mmHg 98%
    05:00 +20°C° 0.2 mm 3 mps 743 mmHg 96%
    06:00 +20°C° 0.2 mm 3 mps 743 mmHg 94%
    07:00 +21°C° 0.2 mm 3 mps 743 mmHg 93%
    08:00 +22°C° 0.5 mm 3 mps 743 mmHg 88%
    09:00 +24°C° 0.5 mm 3 mps 743 mmHg 84%
    10:00 +25°C° 0.5 mm 3 mps 743 mmHg 80%
    11:00 +26°C° 0.8 mm 4 mps 743 mmHg 76%
    12:00 +27°C° 0.8 mm 4 mps 744 mmHg 72%
    13:00 +28°C° 0.8 mm 4 mps 744 mmHg 68%
    14:00 +28°C° 1 mm 5 mps 744 mmHg 70%
    15:00 +27°C° 1 mm 5 mps 744 mmHg 73%
    16:00 +27°C° 1 mm 6 mps 744 mmHg 75%
    17:00 +26°C° 0.6 mm 6 mps 745 mmHg 79%
    18:00 +25°C° 0.6 mm 5 mps 745 mmHg 82%
    19:00 +23°C° 0.6 mm 5 mps 745 mmHg 86%
    20:00 +22°C° 0.4 mm 5 mps 745 mmHg 89%
    21:00 +21°C° 0.4 mm 5 mps 746 mmHg 91%
    22:00 +21°C° 0.4 mm 5 mps 746 mmHg 93%
    23:00 +20°C° 0.1 mm 5 mps 746 mmHg 94%

    Tomorrow, 19 July, Thursday

    Time Temperature Precipitation Wind Pressure Humidity
    00:00 +20°C° 0.1 mm 5 mps 746 mmHg 94%
    01:00 +20°C° 0.1 mm 5 mps 746 mmHg 95%
    02:00 +19°C° 0.2 mm 4 mps 746 mmHg 95%
    03:00 +19°C° 0.2 mm 4 mps 747 mmHg 95%
    04:00 +19°C° 0.2 mm 4 mps 747 mmHg 96%
    05:00 +19°C° 0.8 mm 4 mps 747 mmHg 95%
    06:00 +19°C° 0.8 mm 4 mps 747 mmHg 95%
    07:00 +19°C° 0.8 mm 4 mps 747 mmHg 95%
    08:00 +20°C° 0.3 mm 4 mps 747 mmHg 94%
    09:00 +20°C° 0.3 mm 4 mps 747 mmHg 92%
    10:00 +21°C° 0.3 mm 4 mps 747 mmHg 91%
    11:00 +22°C° 0.2 mm 4 mps 747 mmHg 87%
    12:00 +22°C° 0.2 mm 4 mps 747 mmHg 84%
    13:00 +23°C° 0.2 mm 4 mps 747 mmHg 80%
    14:00 +25°C° 0.1 mm 4 mps 747 mmHg 78%
    15:00 +25°C° 0.1 mm 4 mps 747 mmHg 76%
    16:00 +25°C° 0.1 mm 5 mps 748 mmHg 74%
    17:00 +23°C° 0.1 mm 4 mps 748 mmHg 77%
    18:00 +23°C° 0.1 mm 4 mps 748 mmHg 79%
    19:00 +22°C° 0.1 mm 4 mps 748 mmHg 82%
    20:00 +21°C° 0.2 mm 4 mps 748 mmHg 84%
    21:00 +20°C° 0.2 mm 3 mps 748 mmHg 87%
    22:00 +20°C° 0.2 mm 3 mps 748 mmHg 90%
    23:00 +19°C° 0 mm 3 mps 748 mmHg 92%

    Day after tomorrow, 20 July, Friday

    Time Temperature Precipitation Wind Pressure Humidity
    00:00 +18°C° 0 mm 3 mps 748 mmHg 93%
    01:00 +18°C° 0 mm 3 mps 748 mmHg 94%
    02:00 +18°C° 0 mm 3 mps 748 mmHg 95%
    03:00 +17°C° 0 mm 3 mps 748 mmHg 95%
    04:00 +17°C° 0 mm 3 mps 749 mmHg 95%
    05:00 +18°C° 0 mm 3 mps 749 mmHg 92%
    06:00 +19°C° 0 mm 3 mps 749 mmHg 88%
    07:00 +20°C° 0 mm 3 mps 749 mmHg 84%
    08:00 +21°C° 0.1 mm 4 mps 749 mmHg 79%
    09:00 +23°C° 0.1 mm 4 mps 749 mmHg 73%
    10:00 +25°C° 0.1 mm 4 mps 749 mmHg 68%
    11:00 +26°C° 0.1 mm 5 mps 748 mmHg 64%
    12:00 +26°C° 0.1 mm 5 mps 748 mmHg 61%
    13:00 +27°C° 0.1 mm 5 mps 748 mmHg 58%
    14:00 +27°C° 0.1 mm 5 mps 748 mmHg 59%
    15:00 +27°C° 0.1 mm 5 mps 748 mmHg 59%
    16:00 +27°C° 0.1 mm 5 mps 748 mmHg 59%
    17:00 +26°C° 0.1 mm 5 mps 748 mmHg 65%
    18:00 +25°C° 0.1 mm 4 mps 747 mmHg 70%
    19:00 +22°C° 0.1 mm 3 mps 747 mmHg 76%
    20:00 +21°C° 0 mm 3 mps 748 mmHg 79%
    21:00 +20°C° 0 mm 3 mps 748 mmHg 82%
    22:00 +19°C° 0 mm 3 mps 748 mmHg 86%
    23:00 +18°C° 0 mm 3 mps 748 mmHg 87%

    21 July, Saturday

    Time Temperature Precipitation Wind Pressure Humidity
    00:00 +17°C° 0 mm 2 mps 748 mmHg 88%
    01:00 +17°C° 0 mm 2 mps 748 mmHg 89%
    02:00 +16°C° 0 mm 2 mps 748 mmHg 88%
    03:00 +16°C° 0 mm 2 mps 748 mmHg 88%
    04:00 +15°C° 0 mm 2 mps 748 mmHg 88%
    05:00 +16°C° 0 mm 2 mps 748 mmHg 83%
    06:00 +18°C° 0 mm 2 mps 748 mmHg 77%
    07:00 +19°C° 0 mm 2 mps 748 mmHg 72%
    08:00 +20°C° 0 mm 2 mps 748 mmHg 65%
    09:00 +23°C° 0 mm 2 mps 748 mmHg 59%
    10:00 +24°C° 0 mm 3 mps 748 mmHg 52%
    11:00 +25°C° 0 mm 3 mps 747 mmHg 50%
    12:00 +26°C° 0 mm 3 mps 747 mmHg 47%
    13:00 +26°C° 0 mm 3 mps 747 mmHg 45%
    14:00 +26°C° 0 mm 3 mps 747 mmHg 46%
    15:00 +26°C° 0 mm 3 mps 747 mmHg 46%
    16:00 +26°C° 0 mm 3 mps 746 mmHg 46%
    17:00 +25°C° 0 mm 2 mps 746 mmHg 52%
    18:00 +24°C° 0 mm 2 mps 746 mmHg 57%
    19:00 +23°C° 0 mm 1 mps 746 mmHg 62%
    20:00 +22°C° 0 mm 1 mps 747 mmHg 63%
    21:00 +20°C° 0 mm 2 mps 747 mmHg 64%
    22:00 +18°C° 0 mm 2 mps 747 mmHg 65%
    23:00 +18°C° 0 mm 2 mps 747 mmHg 69%

    22 July, Sunday

    Time Temperature Precipitation Wind Pressure Humidity
    00:00 +17°C° 0 mm 2 mps 747 mmHg 73%
    01:00 +17°C° 0 mm 2 mps 747 mmHg 77%
    02:00 +16°C° 0 mm 1 mps 747 mmHg 80%
    03:00 +16°C° 0 mm 1 mps 747 mmHg 83%
    04:00 +16°C° 0 mm 1 mps 746 mmHg 85%
    05:00 +18°C° 0 mm 1 mps 747 mmHg 82%
    06:00 +19°C° 0 mm 1 mps 747 mmHg 78%
    07:00 +20°C° 0 mm 2 mps 747 mmHg 74%
    08:00 +21°C° 0 mm 2 mps 747 mmHg 70%
    09:00 +24°C° 0 mm 2 mps 747 mmHg 65%
    10:00 +25°C° 0 mm 2 mps 747 mmHg 61%
    11:00 +26°C° 0.1 mm 2 mps 747 mmHg 58%
    12:00 +26°C° 0.1 mm 2 mps 746 mmHg 56%
    13:00 +27°C° 0.1 mm 3 mps 746 mmHg 53%
    14:00 +27°C° 0.1 mm 3 mps 746 mmHg 54%
    15:00 +27°C° 0.1 mm 3 mps 746 mmHg 54%
    16:00 +27°C° 0.1 mm 3 mps 746 mmHg 54%
    17:00 +26°C° 0 mm 3 mps 746 mmHg 59%
    18:00 +24°C° 0 mm 3 mps 747 mmHg 64%
    19:00 +23°C° 0 mm 2 mps 747 mmHg 69%
    20:00 +21°C° 0 mm 3 mps 747 mmHg 72%
    21:00 +20°C° 0 mm 3 mps 747 mmHg 75%
    22:00 +19°C° 0 mm 3 mps 748 mmHg 78%
    23:00 +18°C° 0 mm 3 mps 748 mmHg 80%

    23 July, Monday

    Time Temperature Precipitation Wind Pressure Humidity
    00:00 +17°C° 0 mm 2 mps 748 mmHg 81%
    01:00 +16°C° 0 mm 2 mps 748 mmHg 82%
    02:00 +16°C° 0 mm 2 mps 748 mmHg 83%
    03:00 +16°C° 0 mm 2 mps 749 mmHg 84%
    04:00 +15°C° 0 mm 2 mps 749 mmHg 85%
    05:00 +16°C° 0 mm 2 mps 749 mmHg 82%
    06:00 +18°C° 0 mm 3 mps 749 mmHg 78%
    07:00 +19°C° 0 mm 3 mps 750 mmHg 75%
    08:00 +20°C° 0 mm 3 mps 750 mmHg 70%
    09:00 +22°C° 0 mm 4 mps 750 mmHg 65%
    10:00 +23°C° 0 mm 4 mps 750 mmHg 60%
    11:00 +23°C° 0 mm 4 mps 749 mmHg 59%
    12:00 +25°C° 0 mm 4 mps 749 mmHg 57%
    13:00 +25°C° 0 mm 4 mps 749 mmHg 55%
    14:00 +25°C° 0 mm 4 mps 749 mmHg 55%
    15:00 +25°C° 0 mm 4 mps 749 mmHg 55%
    16:00 +26°C° 0 mm 4 mps 749 mmHg 55%
    17:00 +23°C° 0 mm 4 mps 749 mmHg 61%
    18:00 +22°C° 0 mm 3 mps 749 mmHg 66%
    19:00 +21°C° 0 mm 3 mps 749 mmHg 72%
    20:00 +20°C° 0 mm 3 mps 750 mmHg 75%
    21:00 +19°C° 0 mm 3 mps 750 mmHg 79%
    22:00 +18°C° 0 mm 3 mps 750 mmHg 83%
    23:00 +17°C° 0 mm 2 mps 750 mmHg 86%
    Show more